When you browse on this site, cookies collect data to enhance your experience and personalize the content and advertising you see.
Visit our Privacy Policy to learn more. By continuing to use the site, you agree to this use of cookies and data.
  • Em Portugal
  • Lista de países
  • Para 7 dias
  • Temperatura da água
  • Mapa do tempo
  • Widgets de tempo
  • user-avatar
    Iniciar Sessão

    Previsão horária em Darvin

    Hoje, 19 Setembro, Quinta-feira

    Tempo Temperatura Precipitação Vento Pressão Humidade
    00:00 +23°C° 0 mm 1 m/s 761 mmHg 81%
    01:00 +22°C° 0 mm 1 m/s 761 mmHg 83%
    02:00 +22°C° 0 mm 1 m/s 761 mmHg 85%
    03:00 +22°C° 0 mm 1 m/s 760 mmHg 85%
    04:00 +19°C° 0 mm 0 m/s 760 mmHg 86%
    05:00 +19°C° 0 mm 0 m/s 761 mmHg 87%
    06:00 +19°C° 0 mm 0 m/s 761 mmHg 88%
    07:00 +23°C° 0 mm 0 m/s 761 mmHg 73%
    08:00 +28°C° 0 mm 1 m/s 761 mmHg 58%
    09:00 +32°C° 0 mm 1 m/s 762 mmHg 41%
    10:00 +35°C° 0 mm 2 m/s 761 mmHg 32%
    11:00 +37°C° 0 mm 2 m/s 760 mmHg 24%
    12:00 +39°C° 0 mm 3 m/s 759 mmHg 16%
    13:00 +38°C° 0 mm 4 m/s 759 mmHg 20%
    14:00 +37°C° 0 mm 4 m/s 758 mmHg 23%
    15:00 +36°C° 0 mm 4 m/s 758 mmHg 29%
    16:00 +34°C° 0 mm 4 m/s 758 mmHg 33%
    17:00 +31°C° 0 mm 3 m/s 758 mmHg 37%
    18:00 +29°C° 0 mm 3 m/s 758 mmHg 40%
    19:00 +27°C° 0 mm 3 m/s 758 mmHg 53%
    20:00 +26°C° 0 mm 3 m/s 759 mmHg 65%
    21:00 +23°C° 0 mm 4 m/s 760 mmHg 77%
    22:00 +24°C° 0 mm 3 m/s 760 mmHg 81%
    23:00 +24°C° 0 mm 3 m/s 760 mmHg 85%

    Amanhã, 20 Setembro, Sexta-feira

    Tempo Temperatura Precipitação Vento Pressão Humidade
    00:00 +23°C° 0 mm 2 m/s 760 mmHg 88%
    01:00 +23°C° 0 mm 2 m/s 760 mmHg 90%
    02:00 +23°C° 0 mm 1 m/s 760 mmHg 91%
    03:00 +22°C° 0 mm 1 m/s 760 mmHg 93%
    04:00 +22°C° 0 mm 1 m/s 760 mmHg 93%
    05:00 +22°C° 0 mm 1 m/s 760 mmHg 93%
    06:00 +21°C° 0 mm 1 m/s 760 mmHg 94%
    07:00 +25°C° 0 mm 1 m/s 761 mmHg 77%
    08:00 +29°C° 0 mm 1 m/s 761 mmHg 61%
    09:00 +32°C° 0 mm 1 m/s 761 mmHg 45%
    10:00 +34°C° 0 mm 1 m/s 761 mmHg 39%
    11:00 +37°C° 0 mm 2 m/s 760 mmHg 34%
    12:00 +39°C° 0 mm 3 m/s 759 mmHg 29%
    13:00 +38°C° 0 mm 4 m/s 759 mmHg 32%
    14:00 +36°C° 0 mm 4 m/s 758 mmHg 36%
    15:00 +35°C° 0 mm 4 m/s 758 mmHg 39%
    16:00 +33°C° 0 mm 4 m/s 758 mmHg 45%
    17:00 +32°C° 0 mm 4 m/s 758 mmHg 50%
    18:00 +29°C° 0 mm 4 m/s 758 mmHg 55%
    19:00 +27°C° 0 mm 4 m/s 758 mmHg 65%
    20:00 +26°C° 0 mm 3 m/s 759 mmHg 74%
    21:00 +24°C° 0 mm 3 m/s 759 mmHg 84%
    22:00 +24°C° 0 mm 3 m/s 759 mmHg 85%
    23:00 +24°C° 0 mm 3 m/s 759 mmHg 86%

    Depois de amanhã, 21 Setembro, Sábado

    Tempo Temperatura Precipitação Vento Pressão Humidade
    00:00 +24°C° 0 mm 2 m/s 759 mmHg 87%
    01:00 +22°C° 0 mm 3 m/s 759 mmHg 89%
    02:00 +22°C° 0 mm 3 m/s 759 mmHg 90%
    03:00 +22°C° 0 mm 3 m/s 759 mmHg 91%
    04:00 +22°C° 0 mm 3 m/s 760 mmHg 92%
    05:00 +21°C° 0 mm 2 m/s 760 mmHg 93%
    06:00 +21°C° 0 mm 2 m/s 760 mmHg 94%
    07:00 +25°C° 0 mm 2 m/s 760 mmHg 80%
    08:00 +28°C° 0 mm 2 m/s 760 mmHg 66%
    09:00 +31°C° 0 mm 1 m/s 761 mmHg 52%
    10:00 +34°C° 0 mm 2 m/s 760 mmHg 46%
    11:00 +37°C° 0 mm 2 m/s 760 mmHg 39%
    12:00 +39°C° 0 mm 2 m/s 759 mmHg 33%
    13:00 +37°C° 0 mm 3 m/s 759 mmHg 37%
    14:00 +36°C° 0 mm 4 m/s 758 mmHg 41%
    15:00 +35°C° 0 mm 5 m/s 757 mmHg 45%
    16:00 +33°C° 0 mm 4 m/s 758 mmHg 47%
    17:00 +31°C° 0 mm 3 m/s 758 mmHg 49%
    18:00 +30°C° 0 mm 2 m/s 758 mmHg 52%
    19:00 +29°C° 0 mm 3 m/s 758 mmHg 61%
    20:00 +27°C° 0 mm 3 m/s 759 mmHg 71%
    21:00 +25°C° 0 mm 4 m/s 759 mmHg 81%
    22:00 +25°C° 0 mm 3 m/s 760 mmHg 83%
    23:00 +25°C° 0 mm 3 m/s 760 mmHg 86%

    22 Setembro, Domingo

    Tempo Temperatura Precipitação Vento Pressão Humidade
    00:00 +25°C° 0 mm 3 m/s 760 mmHg 89%
    01:00 +24°C° 0 mm 2 m/s 760 mmHg 91%
    02:00 +24°C° 0 mm 2 m/s 760 mmHg 92%
    03:00 +23°C° 0 mm 2 m/s 760 mmHg 93%
    04:00 +23°C° 0 mm 2 m/s 760 mmHg 94%
    05:00 +23°C° 0 mm 2 m/s 760 mmHg 94%
    06:00 +22°C° 0 mm 3 m/s 760 mmHg 94%
    07:00 +26°C° 0 mm 3 m/s 761 mmHg 81%
    08:00 +29°C° 0 mm 3 m/s 761 mmHg 68%
    09:00 +31°C° 0 mm 3 m/s 761 mmHg 54%
    10:00 +34°C° 0 mm 4 m/s 761 mmHg 47%
    11:00 +36°C° 0 mm 5 m/s 760 mmHg 39%
    12:00 +39°C° 0 mm 6 m/s 760 mmHg 31%
    13:00 +39°C° 0 mm 6 m/s 759 mmHg 32%
    14:00 +39°C° 0 mm 6 m/s 759 mmHg 33%
    15:00 +39°C° 0 mm 7 m/s 758 mmHg 33%
    16:00 +36°C° 0 mm 7 m/s 758 mmHg 39%
    17:00 +34°C° 0 mm 6 m/s 758 mmHg 44%
    18:00 +33°C° 0 mm 6 m/s 759 mmHg 50%
    19:00 +30°C° 0 mm 5 m/s 759 mmHg 57%
    20:00 +29°C° 0 mm 4 m/s 760 mmHg 65%
    21:00 +27°C° 0 mm 3 m/s 761 mmHg 72%
    22:00 +27°C° 0 mm 3 m/s 761 mmHg 78%
    23:00 +26°C° 0 mm 2 m/s 761 mmHg 84%

    23 Setembro, Segunda-feira

    Tempo Temperatura Precipitação Vento Pressão Humidade
    00:00 +26°C° 0 mm 2 m/s 761 mmHg 90%
    01:00 +25°C° 0 mm 2 m/s 761 mmHg 90%
    02:00 +25°C° 0 mm 2 m/s 760 mmHg 90%
    03:00 +25°C° 0 mm 2 m/s 760 mmHg 91%
    04:00 +24°C° 0 mm 1 m/s 760 mmHg 91%
    05:00 +24°C° 0 mm 1 m/s 761 mmHg 91%
    06:00 +24°C° 0 mm 1 m/s 761 mmHg 92%
    07:00 +27°C° 0 mm 1 m/s 761 mmHg 77%
    08:00 +30°C° 0 mm 1 m/s 761 mmHg 62%
    09:00 +33°C° 0 mm 1 m/s 762 mmHg 47%
    10:00 +36°C° 0 mm 2 m/s 761 mmHg 42%
    11:00 +37°C° 0 mm 3 m/s 761 mmHg 36%
    12:00 +39°C° 0 mm 3 m/s 760 mmHg 30%
    13:00 +38°C° 0 mm 4 m/s 760 mmHg 32%
    14:00 +37°C° 0 mm 4 m/s 759 mmHg 35%
    15:00 +36°C° 0 mm 4 m/s 758 mmHg 37%
    16:00 +35°C° 0 mm 4 m/s 759 mmHg 42%
    17:00 +33°C° 0 mm 3 m/s 759 mmHg 47%
    18:00 +31°C° 0 mm 3 m/s 759 mmHg 52%
    19:00 +29°C° 0.1 mm 3 m/s 760 mmHg 60%
    20:00 +28°C° 0.1 mm 3 m/s 760 mmHg 68%
    21:00 +26°C° 0.1 mm 2 m/s 761 mmHg 76%
    22:00 +26°C° 0 mm 2 m/s 761 mmHg 80%
    23:00 +26°C° 0 mm 2 m/s 761 mmHg 84%

    24 Setembro, Terça-feira

    Tempo Temperatura Precipitação Vento Pressão Humidade
    00:00 +25°C° 0 mm 1 m/s 761 mmHg 88%
    01:00 +25°C° 0.1 mm 1 m/s 761 mmHg 88%
    02:00 +25°C° 0.1 mm 1 m/s 760 mmHg 89%
    03:00 +22°C° 0.1 mm 0 m/s 760 mmHg 90%
    04:00 +22°C° 0.1 mm 0 m/s 760 mmHg 89%
    05:00 +24°C° 0.1 mm 1 m/s 760 mmHg 89%
    06:00 +24°C° 0.1 mm 1 m/s 761 mmHg 88%
    07:00 +27°C° 0.2 mm 1 m/s 761 mmHg 75%
    08:00 +30°C° 0.2 mm 1 m/s 761 mmHg 62%
    09:00 +33°C° 0.2 mm 1 m/s 761 mmHg 48%
    10:00 +36°C° 0 mm 2 m/s 761 mmHg 45%
    11:00 +37°C° 0 mm 3 m/s 760 mmHg 41%
    12:00 +38°C° 0 mm 3 m/s 759 mmHg 37%
    13:00 +37°C° 0 mm 4 m/s 759 mmHg 40%
    14:00 +36°C° 0 mm 4 m/s 758 mmHg 44%
    15:00 +35°C° 0 mm 4 m/s 758 mmHg 47%
    16:00 +34°C° 0 mm 4 m/s 758 mmHg 49%
    17:00 +33°C° 0 mm 3 m/s 758 mmHg 51%
    18:00 +31°C° 0 mm 2 m/s 758 mmHg 54%
    19:00 +29°C° 0 mm 2 m/s 759 mmHg 61%
    20:00 +28°C° 0 mm 2 m/s 759 mmHg 69%
    21:00 +27°C° 0 mm 2 m/s 760 mmHg 77%
    22:00 +26°C° 0 mm 2 m/s 760 mmHg 80%
    23:00 +26°C° 0 mm 2 m/s 760 mmHg 84%
    Mostrar mais